Starlink 34242

operational
NORAD ID: 64727 Int'l Des: 2025-144 Owner: SPXS Country: US Constellation: starlink
LEOCIRCULAR

About Starlink 34242

Description loading...

Live Position

Loading 3D Globe...

Upcoming Passes

Altitude History

Altitude vs Time

uPlot chart will show altitude changes over time

Two-Line Element Set

1 64727U 25144D 26061.14884894 .00027247 00000-0 92836-3 0 9996
2 64727 53.1599 216.3291 0001121 84.2988 275.8141 15.30211950 38554
Epoch: Mar 2, 2026 • Age: 32 hours

Current Status

Altitude 480.4 km
Velocity 7.63 km/s
Sub-Earth Point 51.36°N, 37.38°E
Launch Date Jul 2, 2025
Age 0.6 years
Type internet

Technical Details

Classification Payload
Mass 575.00 kg
Dry Mass 530.00 kg
Total Mass 575.00 kg
Length 0.30 m
Diameter 4.10 m
Span 29.00 m
Shape Box + pan
Manufacturer SPXS
Bus Type Starlink V2MO
Phase Status In Orbit
Owner/State SPXS/US

Large Constellations

Loading constellations...